Terminal Aerodrome Forecast
Issued by NWS

Home | Current Version | Previous Version | Graphics & Text | Print | Product List | Glossary On
Versions: 1 2 3 4 5 6 7 8 9 10 11 12 13 14 15 16 17 18 19 20 21 22 23 24 25 26 27 28 29 30 31 32 33 34 35
000
FTUS43 KLOT 240305 AAA
TAFORD
TAF AMD
KORD 240305Z 2403/2506 07008KT P6SM BKN020
     FM240500 08006KT P6SM SCT025
     FM241500 10012KT P6SM BKN250
     FM242000 11013G18KT P6SM BKN120 OVC250
     FM250000 13014G22KT P6SM -SHRA BKN045 OVC070
     FM250200 13015KT 4SM -RA BR BKN009 OVC015 WS020/15045KT=

USA.gov is the U.S. government's official web portal to all federal, state and local government web resources and services.